FW9150 Weather Reports


time (UTC)temp
C
wind
direction
speed
KPH
gust
KPH
rain 1hr
cm
rain 24hr
cm
rain mn
cm
humidity
%
barometer
mb
20260508005329 18 150 0.0 1.6 0.00 0.00 0.00 57 1024.3
20260508004329 18 164 3.2 4.8 0.00 0.00 0.00 55 1024.2
20260508003328 18 157 0.0 0.0 0.00 0.00 0.00 54 1024.1
20260508002327 18 135 0.0 1.6 0.00 0.00 0.00 53 1024.1
20260508001329 18 225 0.0 3.2 0.00 0.00 0.00 51 1024.1
20260508000327 19 185 0.0 1.6 0.00 0.00 0.00 49 1024.1
20260507235327 19 180 4.8 8.0 0.00 0.00 0.00 50 1024.1
20260507234328 19 210 0.0 0.0 0.00 0.00 0.00 48 1024.0
20260507233327 20 157 0.0 1.6 0.00 0.00 0.00 45 1024.1
20260507231326 20 187 0.0 1.6 0.00 0.00 0.00 46 1024.2
20260507225343 20 180 0.0 0.0 0.00 0.00 0.00 45 1024.5
20260507223328 20 284 0.0 3.2 0.00 0.00 0.00 44 1024.5
20260507222344 20 169 1.6 3.2 0.00 0.00 0.00 45 1024.6
20260507221428 20 126 0.0 3.2 0.00 0.00 0.00 45 1024.7
20260507220429 21 135 0.0 0.0 0.00 0.00 0.00 45 1024.7
20260507215427 21 130 0.0 1.6 0.00 0.00 0.00 46 1024.7
20260507214427 21 187 4.8 8.0 0.00 0.00 0.00 45 1024.8
20260507213526 21 80 1.6 4.8 0.00 0.00 0.00 45 1024.9
20260507212529 21 225 0.0 0.0 0.00 0.00 0.00 45 1024.9
20260507211545 21 126 0.0 1.6 0.00 0.00 0.00 44 1024.9
20260507210543 21 185 0.0 3.2 0.00 0.00 0.00 43 1024.9
20260507204628 22 88 0.0 1.6 0.00 0.00 0.00 43 1024.8
20260507203627 23 180 1.6 4.8 0.00 0.00 0.00 42 1024.9
20260507202627 23 292 0.0 1.6 0.00 0.00 0.00 41 1025.0
20260507201627 23 142 0.0 3.2 0.00 0.00 0.00 40 1024.9
20260507200626 23 174 6.4 8.0 0.00 0.00 0.00 38 1024.9
20260507195627 23 135 1.6 3.2 0.00 0.00 0.00 39 1024.9
20260507194727 23 39 0.0 4.8 0.00 0.00 0.00 39 1024.9
20260507193728 23 221 1.6 3.2 0.00 0.00 0.00 39 1024.9
20260507192727 24 167 0.0 1.6 0.00 0.00 0.00 37 1025.0
20260507191727 24 135 0.0 1.6 0.00 0.00 0.00 34 1025.1
20260507190827 23 315 0.0 0.0 0.00 0.00 0.00 35 1025.1
20260507184828 23 202 0.0 1.6 0.00 0.00 0.00 33 1025.2
20260507183828 23 93 0.0 0.0 0.00 0.00 0.00 34 1025.3
20260507182826 22 315 0.0 1.6 0.00 0.00 0.00 36 1025.3
20260507181826 22 200 0.0 1.6 0.00 0.00 0.00 38 1025.3
20260507180925 22 12 1.6 9.7 0.00 0.00 0.00 40 1025.3
20260507175927 22 157 0.0 0.0 0.00 0.00 0.00 39 1025.3
20260507174928 22 163 1.6 3.2 0.00 0.00 0.00 39 1025.3
20260507172927 21 157 0.0 1.6 0.00 0.00 0.00 41 1025.2
20260507171927 20 202 0.0 0.0 0.00 0.00 0.00 45 1025.3
20260507170942 21 180 0.0 4.8 0.00 0.00 0.00 47 1025.2
20260507165927 20 157 3.2 3.2 0.00 0.00 0.00 49 1025.2
20260507164927 20 157 0.0 1.6 0.00 0.00 0.00 50 1025.3
20260507163927 19 135 1.6 1.6 0.00 0.00 0.00 52 1025.3
20260507162928 18 135 1.6 3.2 0.00 0.00 0.00 54 1025.3
20260507161927 17 135 0.0 0.0 0.00 0.00 0.00 58 1025.3
20260507160926 16 157 0.0 0.0 0.00 0.00 0.00 59 1025.3
20260507155026 14 135 0.0 1.6 0.00 0.00 0.00 64 1025.2
20260507154028 13 45 0.0 0.0 0.00 0.00 0.00 64 1025.3
20260507153028 12 45 0.0 0.0 0.00 0.00 0.00 68 1025.0
20260507152044 12 45 0.0 0.0 0.00 0.00 0.00 69 1025.0
20260507151027 11 45 0.0 0.0 0.00 0.00 0.00 69 1025.0
20260507150030 10 45 0.0 0.0 0.00 0.00 0.00 74 1025.0
20260507145028 10 45 0.0 0.0 0.00 0.00 0.00 77 1024.9
20260507144035 9 45 0.0 0.0 0.00 0.00 0.00 77 1024.9
20260507143126 9 45 0.0 0.0 0.00 0.00 0.00 76 1024.9
20260507142128 8 45 0.0 0.0 0.00 0.00 0.00 76 1024.9
20260507141126 8 45 0.0 0.0 0.00 0.00 0.00 76 1024.8
20260507140130 8 45 0.0 0.0 0.00 0.00 0.00 76 1024.8
20260507135226 8 45 0.0 0.0 0.00 0.00 0.00 74 1024.7
20260507134226 8 45 0.0 0.0 0.00 0.00 0.00 73 1024.5
20260507133227 8 45 0.0 0.0 0.00 0.00 0.00 72 1024.4
20260507131227 8 45 0.0 0.0 0.00 0.00 0.00 72 1024.2
20260507131128 8 45 0.0 0.0 0.00 0.00 0.00 72 1024.1
20260507130127 8 45 0.0 0.0 0.00 0.00 0.00 72 1024.2
20260507125126 8 45 0.0 0.0 0.00 0.00 0.00 73 1024.2
20260507124226 8 45 0.0 0.0 0.00 0.00 0.00 73 1024.3
20260507122226 8 45 0.0 0.0 0.00 0.00 0.00 74 1024.1
20260507120229 8 45 0.0 0.0 0.00 0.00 0.00 72 1024.1
20260507115227 8 45 0.0 0.0 0.00 0.00 0.00 70 1024.0
20260507114229 8 45 0.0 0.0 0.00 0.00 0.00 69 1024.2
20260507113226 8 45 0.0 0.0 0.00 0.00 0.00 68 1024.2
20260507112228 8 45 0.0 0.0 0.00 0.00 0.00 67 1024.1
20260507111326 8 45 0.0 0.0 0.00 0.00 0.00 66 1024.1
20260507110329 8 45 0.0 0.0 0.00 0.00 0.00 68 1024.1
20260507105329 8 45 0.0 0.0 0.00 0.00 0.00 67 1024.2
20260507104330 8 45 0.0 0.0 0.00 0.00 0.00 67 1024.1
20260507103326 8 45 0.0 0.0 0.00 0.00 0.00 68 1024.3
20260507102343 8 45 0.0 0.0 0.00 0.00 0.00 67 1024.2
20260507101328 8 45 0.0 0.0 0.00 0.00 0.00 69 1024.3
20260507100328 8 45 0.0 0.0 0.00 0.00 0.00 70 1024.2
20260507095326 8 45 0.0 0.0 0.00 0.00 0.00 76 1024.3
20260507094426 8 45 0.0 0.0 0.00 0.00 0.00 75 1024.2
20260507093426 8 45 0.0 0.0 0.00 0.00 0.00 74 1024.2
20260507092427 8 45 0.0 0.0 0.00 0.00 0.00 77 1024.3
20260507091427 8 45 0.0 0.0 0.00 0.00 0.00 85 1024.4
20260507085428 8 45 0.0 0.0 0.00 0.00 0.00 92 1024.4
20260507084526 8 45 0.0 0.0 0.00 0.00 0.00 94 1024.5
20260507083626 8 45 0.0 0.0 0.00 0.00 0.00 94 1024.6
20260507081626 8 45 0.0 0.0 0.00 0.00 0.00 94 1024.7
20260507075726 9 45 0.0 0.0 0.00 0.00 0.00 94 1024.8
20260507074726 9 45 0.0 0.0 0.00 0.00 0.00 94 1024.7
20260507072728 9 45 0.0 0.0 0.00 0.00 0.00 94 1024.8
20260507071826 9 45 0.0 0.0 0.00 0.00 0.00 94 1024.8
20260507070828 9 45 0.0 0.0 0.00 0.00 0.00 94 1025.0
20260507065912 9 45 0.0 0.0 0.00 0.00 0.00 93 1025.0
20260507065011 9 45 0.0 0.0 0.00 0.00 0.00 93 1025.1
20260507064011 9 45 0.0 0.0 0.00 0.00 0.00 93 1025.1
20260507063012 10 45 0.0 0.0 0.00 0.00 0.00 93 1024.9
20260507062013 10 45 0.0 0.0 0.00 0.00 0.00 93 1024.9
20260507061111 10 45 0.0 0.0 0.00 0.00 0.00 93 1024.9
20260507060112 10 45 0.0 0.0 0.00 0.00 0.00 93 1024.7
20260507055210 10 45 0.0 0.0 0.00 0.00 0.00 93 1024.6
20260507054310 10 45 0.0 0.0 0.00 0.00 0.00 93 1024.6
20260507053312 10 45 0.0 0.0 0.00 0.00 0.00 93 1024.7
20260507052411 10 45 0.0 0.0 0.00 0.00 0.00 93 1024.6
20260507051411 11 45 0.0 0.0 0.00 0.00 0.00 93 1024.6
20260507050411 11 45 0.0 0.0 0.00 0.00 0.00 93 1024.7
20260507045412 11 45 0.0 0.0 0.00 0.00 0.00 92 1024.8
20260507044511 11 45 0.0 0.0 0.00 0.00 0.00 92 1024.7
20260507043511 11 45 0.0 0.0 0.00 0.00 0.00 92 1024.7
20260507042511 11 45 0.0 0.0 0.00 0.00 0.00 91 1024.6
20260507041511 11 45 0.0 0.0 0.00 0.00 0.00 91 1024.7
20260507040510 11 45 0.0 0.0 0.00 0.00 0.00 91 1024.6
20260507035513 11 45 0.0 0.0 0.00 0.00 0.00 90 1024.5
20260507032611 12 45 0.0 0.0 0.00 0.00 0.00 89 1024.2
20260507031610 12 45 0.0 0.0 0.00 0.00 0.00 88 1024.3
20260507025711 12 45 0.0 0.0 0.00 0.00 0.00 86 1024.2
20260507024810 13 45 0.0 0.0 0.00 0.00 0.00 86 1024.1
20260507021910 13 45 0.0 0.0 0.00 0.00 0.00 82 1023.9
20260507020912 14 45 0.0 0.0 0.00 0.00 0.00 82 1023.8
20260507015911 14 45 0.0 0.0 0.00 0.00 0.00 81 1023.8
20260507014910 15 45 0.0 0.0 0.00 0.00 0.00 80 1023.8
20260507013911 15 113 0.0 0.0 0.00 0.00 0.00 78 1023.8
20260507012910 15 135 0.0 0.0 0.00 0.00 0.00 77 1023.8
20260507011911 15 135 0.0 0.0 0.00 0.00 0.00 76 1023.7
20260507010912 15 135 0.0 0.0 0.00 0.00 0.00 75 1023.7